Time,TemperatureF,DewpointF,PressureIn,WindDirection,WindDirectionDegrees,WindSpeedMPH,WindSpeedGustMPH,Humidity,HourlyPrecipIn,Conditions,Clouds,dailyrainin,SoftwareType,DateUTC
2013-02-26 00:00:00,52.0,-99.9,29.86,WNW,303,15.0,17.0,-999,-99.99,,,-99.99,,2013-02-26 06:00:00,
2013-02-26 00:22:00,52.0,-99.9,29.86,WNW,303,15.0,17.0,-999,-99.99,,,-99.99,,2013-02-26 06:22:00,
2013-02-26 00:32:00,52.0,-99.9,29.86,WNW,303,15.0,17.0,-999,-99.99,,,-99.99,,2013-02-26 06:32:00,
2013-02-26 00:42:00,52.0,-99.9,29.86,WNW,303,15.0,17.0,-999,-99.99,,,-99.99,,2013-02-26 06:42:00,
2013-02-26 00:52:00,52.0,-99.9,29.86,WNW,303,15.0,17.0,-999,-99.99,,,-99.99,,2013-02-26 06:52:00,
2013-02-26 01:00:00,50.0,-99.9,29.86,WNW,298,13.0,17.0,-999,-99.99,,,-99.99,,2013-02-26 07:00:00,
2013-02-26 01:32:00,50.0,-99.9,29.86,WNW,298,13.0,17.0,-999,-99.99,,,-99.99,,2013-02-26 07:32:00,
2013-02-26 01:42:00,50.0,-99.9,29.86,WNW,298,13.0,17.0,-999,-99.99,,,-99.99,,2013-02-26 07:42:00,
2013-02-26 01:52:00,50.0,-99.9,29.86,WNW,298,13.0,17.0,-999,-99.99,,,-99.99,,2013-02-26 07:52:00,
2013-02-26 02:00:00,50.0,-99.9,29.86,WNW,303,14.0,18.0,-999,-99.99,,,-99.99,,2013-02-26 08:00:00,
2013-02-26 02:32:00,50.0,-99.9,29.86,WNW,303,14.0,18.0,-999,-99.99,,,-99.99,,2013-02-26 08:32:00,
2013-02-26 02:42:00,50.0,-99.9,29.86,WNW,303,14.0,18.0,-999,-99.99,,,-99.99,,2013-02-26 08:42:00,
2013-02-26 02:52:00,50.0,-99.9,29.86,WNW,303,14.0,18.0,-999,-99.99,,,-99.99,,2013-02-26 08:52:00,
2013-02-26 03:00:00,46.0,-99.9,29.86,WNW,288,9.0,11.0,-999,-99.99,,,-99.99,,2013-02-26 09:00:00,
2013-02-26 03:32:00,46.0,-99.9,29.86,WNW,288,9.0,11.0,-999,-99.99,,,-99.99,,2013-02-26 09:32:00,
2013-02-26 03:43:00,46.0,-99.9,29.86,WNW,288,9.0,11.0,-999,-99.99,,,-99.99,,2013-02-26 09:43:00,
2013-02-26 03:52:00,46.0,-99.9,29.86,WNW,288,9.0,11.0,-999,-99.99,,,-99.99,,2013-02-26 09:52:00,
2013-02-26 04:00:00,46.0,-99.9,29.88,West,277,8.0,10.0,-999,-99.99,,,-99.99,,2013-02-26 10:00:00,
2013-02-26 04:32:00,46.0,-99.9,29.88,West,277,8.0,10.0,-999,-99.99,,,-99.99,,2013-02-26 10:32:00,
2013-02-26 04:42:00,46.0,-99.9,29.88,West,277,8.0,10.0,-999,-99.99,,,-99.99,,2013-02-26 10:42:00,
2013-02-26 04:52:00,46.0,-99.9,29.88,West,277,8.0,10.0,-999,-99.99,,,-99.99,,2013-02-26 10:52:00,
2013-02-26 05:00:00,45.0,-99.9,29.88,WNW,297,12.0,14.0,-999,-99.99,,,-99.99,,2013-02-26 11:00:00,
2013-02-26 05:22:00,45.0,-99.9,29.88,WNW,297,12.0,14.0,-999,-99.99,,,-99.99,,2013-02-26 11:22:00,
2013-02-26 05:32:00,45.0,-99.9,29.88,WNW,297,12.0,14.0,-999,-99.99,,,-99.99,,2013-02-26 11:32:00,
2013-02-26 05:42:00,45.0,-99.9,29.88,WNW,297,12.0,14.0,-999,-99.99,,,-99.99,,2013-02-26 11:42:00,
2013-02-26 05:53:00,45.0,-99.9,29.88,WNW,297,12.0,14.0,-999,-99.99,,,-99.99,,2013-02-26 11:53:00,
2013-02-26 06:00:00,46.0,-99.9,29.88,NW,307,16.0,20.0,-999,-99.99,,,-99.99,,2013-02-26 12:00:00,
2013-02-26 06:33:00,46.0,-99.9,29.88,NW,307,16.0,20.0,-999,-99.99,,,-99.99,,2013-02-26 12:33:00,
2013-02-26 06:42:00,46.0,-99.9,29.88,NW,307,16.0,20.0,-999,-99.99,,,-99.99,,2013-02-26 12:42:00,
2013-02-26 06:53:00,46.0,-99.9,29.88,NW,307,16.0,20.0,-999,-99.99,,,-99.99,,2013-02-26 12:53:00,
2013-02-26 07:00:00,44.0,-99.9,29.92,WNW,285,10.0,13.0,-999,-99.99,,,-99.99,,2013-02-26 13:00:00,
2013-02-26 07:32:00,44.0,-99.9,29.92,WNW,285,10.0,13.0,-999,-99.99,,,-99.99,,2013-02-26 13:32:00,
2013-02-26 07:42:00,44.0,-99.9,29.92,WNW,285,10.0,13.0,-999,-99.99,,,-99.99,,2013-02-26 13:42:00,
2013-02-26 07:52:00,44.0,-99.9,29.92,WNW,285,10.0,13.0,-999,-99.99,,,-99.99,,2013-02-26 13:52:00,
2013-02-26 08:00:00,44.0,-99.9,29.96,West,274,9.0,12.0,-999,-99.99,,,-99.99,,2013-02-26 14:00:00,
2013-02-26 08:32:00,44.0,-99.9,29.96,West,274,9.0,12.0,-999,-99.99,,,-99.99,,2013-02-26 14:32:00,
2013-02-26 08:42:00,44.0,-99.9,29.96,West,274,9.0,12.0,-999,-99.99,,,-99.99,,2013-02-26 14:42:00,
2013-02-26 08:52:00,44.0,-99.9,29.96,West,274,9.0,12.0,-999,-99.99,,,-99.99,,2013-02-26 14:52:00,
2013-02-26 09:00:00,49.0,-99.9,29.97,NW,308,15.0,19.0,-999,-99.99,,,-99.99,,2013-02-26 15:00:00,
2013-02-26 09:32:00,49.0,-99.9,29.97,NW,308,15.0,19.0,-999,-99.99,,,-99.99,,2013-02-26 15:32:00,
2013-02-26 09:42:00,49.0,-99.9,29.97,NW,308,15.0,19.0,-999,-99.99,,,-99.99,,2013-02-26 15:42:00,
2013-02-26 09:52:00,49.0,-99.9,29.97,NW,308,15.0,19.0,-999,-99.99,,,-99.99,,2013-02-26 15:52:00,
2013-02-26 10:00:00,52.0,-99.9,29.98,NW,310,16.0,19.0,-999,-99.99,,,-99.99,,2013-02-26 16:00:00,
2013-02-26 10:32:00,52.0,-99.9,29.98,NW,310,16.0,19.0,-999,-99.99,,,-99.99,,2013-02-26 16:32:00,
2013-02-26 10:42:00,52.0,-99.9,29.98,NW,310,16.0,19.0,-999,-99.99,,,-99.99,,2013-02-26 16:42:00,
2013-02-26 10:52:00,52.0,-99.9,29.98,NW,310,16.0,19.0,-999,-99.99,,,-99.99,,2013-02-26 16:52:00,
2013-02-26 11:00:00,53.0,-99.9,29.97,NNW,333,13.0,17.0,-999,-99.99,,,-99.99,,2013-02-26 17:00:00,
2013-02-26 11:32:00,53.0,-99.9,29.97,NNW,333,13.0,17.0,-999,-99.99,,,-99.99,,2013-02-26 17:32:00,
2013-02-26 11:42:00,53.0,-99.9,29.97,NNW,333,13.0,17.0,-999,-99.99,,,-99.99,,2013-02-26 17:42:00,
2013-02-26 11:52:00,53.0,-99.9,29.97,NNW,333,13.0,17.0,-999,-99.99,,,-99.99,,2013-02-26 17:52:00,
2013-02-26 12:00:00,57.0,-99.9,29.96,NW,312,9.0,12.0,-999,-99.99,,,-99.99,,2013-02-26 18:00:00,
2013-02-26 12:32:00,57.0,-99.9,29.96,NW,312,9.0,12.0,-999,-99.99,,,-99.99,,2013-02-26 18:32:00,
2013-02-26 12:42:00,57.0,-99.9,29.96,NW,312,9.0,12.0,-999,-99.99,,,-99.99,,2013-02-26 18:42:00,
2013-02-26 12:53:00,57.0,-99.9,29.96,NW,312,9.0,12.0,-999,-99.99,,,-99.99,,2013-02-26 18:53:00,
2013-02-26 13:00:00,57.0,-99.9,29.93,NNE,12,9.0,9.0,-999,-99.99,,,-99.99,,2013-02-26 19:00:00,
2013-02-26 13:32:00,57.0,-99.9,29.93,NNE,12,9.0,9.0,-999,-99.99,,,-99.99,,2013-02-26 19:32:00,
2013-02-26 13:42:00,57.0,-99.9,29.93,NNE,12,9.0,9.0,-999,-99.99,,,-99.99,,2013-02-26 19:42:00,
2013-02-26 13:52:00,57.0,-99.9,29.93,NNE,12,9.0,9.0,-999,-99.99,,,-99.99,,2013-02-26 19:52:00,
2013-02-26 14:00:00,59.0,-99.9,29.89,NNE,18,7.0,8.0,-999,-99.99,,,-99.99,,2013-02-26 20:00:00,
2013-02-26 14:32:00,59.0,-99.9,29.89,NNE,18,7.0,8.0,-999,-99.99,,,-99.99,,2013-02-26 20:32:00,
2013-02-26 14:42:00,59.0,-99.9,29.89,NNE,18,7.0,8.0,-999,-99.99,,,-99.99,,2013-02-26 20:42:00,
2013-02-26 14:52:00,59.0,-99.9,29.89,NNE,18,7.0,8.0,-999,-99.99,,,-99.99,,2013-02-26 20:52:00,
2013-02-26 15:00:00,61.0,-99.9,29.89,SE,142,5.0,6.0,-999,-99.99,,,-99.99,,2013-02-26 21:00:00,
2013-02-26 15:31:00,61.0,-99.9,29.89,SE,142,5.0,6.0,-999,-99.99,,,-99.99,,2013-02-26 21:31:00,
2013-02-26 15:41:00,61.0,-99.9,29.89,SE,142,5.0,6.0,-999,-99.99,,,-99.99,,2013-02-26 21:41:00,
2013-02-26 15:51:00,61.0,-99.9,29.89,SE,142,5.0,6.0,-999,-99.99,,,-99.99,,2013-02-26 21:51:00,
2013-02-26 16:00:00,63.0,-99.9,29.88,SE,125,3.0,6.0,-999,-99.99,,,-99.99,,2013-02-26 22:00:00,
2013-02-26 16:32:00,63.0,-99.9,29.88,SE,125,3.0,6.0,-999,-99.99,,,-99.99,,2013-02-26 22:32:00,
2013-02-26 16:42:00,63.0,-99.9,29.88,SE,125,3.0,6.0,-999,-99.99,,,-99.99,,2013-02-26 22:42:00,
2013-02-26 16:52:00,63.0,-99.9,29.88,SE,125,3.0,6.0,-999,-99.99,,,-99.99,,2013-02-26 22:52:00,
2013-02-26 17:00:00,62.0,-99.9,29.88,ENE,60,1.0,3.0,-999,-99.99,,,-99.99,,2013-02-26 23:00:00,
2013-02-26 17:32:00,62.0,-99.9,29.88,ENE,60,1.0,3.0,-999,-99.99,,,-99.99,,2013-02-26 23:32:00,
2013-02-26 17:42:00,62.0,-99.9,29.88,ENE,60,1.0,3.0,-999,-99.99,,,-99.99,,2013-02-26 23:42:00,
2013-02-26 17:52:00,62.0,-99.9,29.88,ENE,60,1.0,3.0,-999,-99.99,,,-99.99,,2013-02-26 23:52:00,
2013-02-26 18:00:00,61.0,-99.9,29.88,South,182,10.0,12.0,-999,-99.99,,,-99.99,,2013-02-27 00:00:00,
2013-02-26 18:32:00,61.0,-99.9,29.88,South,182,10.0,12.0,-999,-99.99,,,-99.99,,2013-02-27 00:32:00,
2013-02-26 18:42:00,61.0,-99.9,29.88,South,182,10.0,12.0,-999,-99.99,,,-99.99,,2013-02-27 00:42:00,
2013-02-26 18:52:00,61.0,-99.9,29.88,South,182,10.0,12.0,-999,-99.99,,,-99.99,,2013-02-27 00:52:00,
2013-02-26 19:00:00,59.0,-99.9,29.89,South,181,7.0,8.0,-999,-99.99,,,-99.99,,2013-02-27 01:00:00,
2013-02-26 19:32:00,59.0,-99.9,29.89,South,181,7.0,8.0,-999,-99.99,,,-99.99,,2013-02-27 01:32:00,
2013-02-26 19:42:00,59.0,-99.9,29.89,South,181,7.0,8.0,-999,-99.99,,,-99.99,,2013-02-27 01:42:00,
2013-02-26 19:52:00,59.0,-99.9,29.89,South,181,7.0,8.0,-999,-99.99,,,-99.99,,2013-02-27 01:52:00,
2013-02-26 20:00:00,60.0,-99.9,29.90,SSE,161,6.0,9.0,-999,-99.99,,,-99.99,,2013-02-27 02:00:00,
2013-02-26 20:32:00,60.0,-99.9,29.90,SSE,161,6.0,9.0,-999,-99.99,,,-99.99,,2013-02-27 02:32:00,
2013-02-26 20:42:00,60.0,-99.9,29.90,SSE,161,6.0,9.0,-999,-99.99,,,-99.99,,2013-02-27 02:42:00,
2013-02-26 20:52:00,60.0,-99.9,29.90,SSE,161,6.0,9.0,-999,-99.99,,,-99.99,,2013-02-27 02:52:00,
2013-02-26 21:00:00,60.0,-99.9,29.93,South,170,8.0,9.0,-999,-99.99,,,-99.99,,2013-02-27 03:00:00,
2013-02-26 21:32:00,60.0,-99.9,29.93,South,170,8.0,9.0,-999,-99.99,,,-99.99,,2013-02-27 03:32:00,
2013-02-26 21:42:00,60.0,-99.9,29.93,South,170,8.0,9.0,-999,-99.99,,,-99.99,,2013-02-27 03:42:00,
2013-02-26 21:52:00,60.0,-99.9,29.93,South,170,8.0,9.0,-999,-99.99,,,-99.99,,2013-02-27 03:52:00,
2013-02-26 22:00:00,60.0,-99.9,29.94,South,176,8.0,10.0,-999,-99.99,,,-99.99,,2013-02-27 04:00:00,
2013-02-26 22:32:00,60.0,-99.9,29.94,South,176,8.0,10.0,-999,-99.99,,,-99.99,,2013-02-27 04:32:00,
2013-02-26 22:42:00,60.0,-99.9,29.94,South,176,8.0,10.0,-999,-99.99,,,-99.99,,2013-02-27 04:42:00,
2013-02-26 22:52:00,60.0,-99.9,29.94,South,176,8.0,10.0,-999,-99.99,,,-99.99,,2013-02-27 04:52:00,
2013-02-26 23:00:00,60.0,-99.9,29.93,SSE,167,9.0,10.0,-999,-99.99,,,-99.99,,2013-02-27 05:00:00,
2013-02-26 23:32:00,60.0,-99.9,29.93,SSE,167,9.0,10.0,-999,-99.99,,,-99.99,,2013-02-27 05:32:00,
2013-02-26 23:42:00,60.0,-99.9,29.93,SSE,167,9.0,10.0,-999,-99.99,,,-99.99,,2013-02-27 05:42:00,
2013-02-26 23:52:00,60.0,-99.9,29.93,SSE,167,9.0,10.0,-999,-99.99,,,-99.99,,2013-02-27 05:52:00,